Location: Ferma
(41.9500°N, 44.5167°E)
Time: 09:58:41
(UTC+00:00)

BREEZE-M DEB (TANK) - Pass Details

Date: 01 June 2022
Orbit: 338 x 14777 km, 49.6° (Epoch: 30 June)

Event Time Altitude Azimuth Distance (km) Brightness Sun altitude
Rises 15:45:45 0° 306° (NW) 16,137 12.5 6.6°
Reaches altitude 10° 16:01:11 10° 306° (NW) 16,755 12.8 4.0°
Maximum altitude 17:59:56 50° 261° (W) 11,869 9.9 -13.6°
Drops below altitude 10° 18:41:29 10° 190° (S) 7,430 8.3 -18.4°
Enters shadow 18:44:25 - 185° (S) 7,452 8.3 -18.7°
